Precipitable_Water
0.41 0.40 0.36 0.37 0.48 0.57 0.60 0.69 0.68 0.74 0.93 0.82 0.67 0.63 0.74 0.91 0.98 1.17 1.19 1.11 1.13 1.11 1.08 1.14 1.19 1.24 1.37 1.47 1.50 1.55 1.54 1.61 1.67 1.65 1.56 1.65 1.72 1.75 1.79 1.86 1.81 1.93 2.11 2.12
0.33 0.34 0.37 0.45 0.51 0.54 0.54 0.59 0.62 0.74 0.82 0.71 0.67 0.62 0.76 0.95 1.06 1.14 1.18 1.20 1.18 1.13 1.12 1.14 1.27 1.31 1.38 1.44 1.37 1.46 1.46 1.57 1.72 1.72 1.72 1.74 1.82 1.87 1.98 2.06 2.04 2.08 2.08 1.95
0.25 0.32 0.43 0.42 0.40 0.42 0.45 0.47 0.52 0.66 0.78 0.67 0.65 0.60 0.92 1.06 1.14 0.97 1.07 1.25 1.27 1.24 1.09 1.16 1.23 1.35 1.38 1.39 1.40 1.33 1.39 1.48 1.59 1.68 1.75 1.81 1.97 2.15 1.99 1.98 1.99 1.97 1.94 1.91
0.24 0.30 0.32 0.35 0.41 0.35 0.29 0.45 0.48 0.49 0.50 0.42 0.56 0.46 0.60 0.79 0.75 0.93 1.10 1.15 1.24 1.28 1.18 1.19 1.25 1.33 1.36 1.36 1.40 1.45 1.36 1.46 1.47 1.57 1.60 1.62 1.64 1.63 1.77 1.85 1.93 1.82 1.88 1.94
0.18 0.22 0.26 0.27 0.31 0.33 0.29 0.39 0.42 0.44 0.37 0.38 0.40 0.50 0.59 0.73 0.74 0.83 0.93 0.96 1.04 1.25 1.14 1.17 1.23 1.31 1.38 1.44 1.40 1.39 1.39 1.44 1.48 1.44 1.57 1.62 1.59 1.65 1.76 1.82 1.80 1.75 1.86 1.87
0.18 0.23 0.21 0.23 0.26 0.27 0.27 0.29 0.31 0.36 0.32 0.26 0.32 0.40 0.51 0.59 0.65 0.77 0.85 0.88 0.92 1.03 1.19 1.26 1.34 1.35 1.39 1.50 1.55 1.49 1.41 1.42 1.48 1.48 1.54 1.61 1.58 1.66 1.90 1.76 1.81 1.69 1.76 1.55
0.15 0.14 0.16 0.17 0.14 0.18 0.18 0.19 0.15 0.18 0.20 0.19 0.37 0.39 0.52 0.71 0.76 0.76 0.70 0.87 0.82 0.75 1.06 1.25 1.31 1.30 1.36 1.44 1.52 1.61 1.46 1.38 1.45 1.48 1.46 1.52 1.55 1.65 1.65 1.69 1.70 1.65 1.75 1.52
0.14 0.15 0.20 0.19 0.17 0.14 0.15 0.16 0.17 0.16 0.20 0.27 0.37 0.38 0.51 0.68 0.76 0.79 0.78 0.89 1.14 1.16 1.30 1.32 1.34 1.29 1.36 1.40 1.51 1.62 1.55 1.47 1.43 1.45 1.44 1.53 1.52 1.57 1.66 1.68 1.67 1.72 1.67 1.52
0.16 0.18 0.23 0.19 0.19 0.18 0.14 0.16 0.22 0.22 0.23 0.21 0.29 0.44 0.60 0.66 0.68 0.82 0.86 0.96 1.00 1.26 1.44 1.48 1.40 1.28 1.35 1.35 1.45 1.55 1.61 1.55 1.52 1.41 1.45 1.52 1.60 1.58 1.64 1.68 1.64 1.58 1.69 1.62
0.19 0.18 0.24 0.25 0.25 0.20 0.16 0.17 0.16 0.20 0.19 0.16 0.20 0.32 0.38 0.54 0.60 0.72 0.77 0.97 1.31 1.27 1.13 0.80 1.31 1.30 1.31 1.35 1.47 1.57 1.67 1.58 1.53 1.53 1.48 1.58 1.62 1.67 1.76 1.79 1.61 1.68 1.62 1.62
0.21 0.20 0.22 0.27 0.24 0.22 0.18 0.13 0.16 0.18 0.22 0.20 0.20 0.32 0.52 0.52 0.62 0.67 0.74 0.83 0.96 1.10 0.88 1.16 1.27 1.37 1.37 1.38 1.44 1.56 1.68 1.69 1.62 1.64 1.60 1.61 1.69 1.72 1.84 1.86 1.85 1.82 1.74 1.69
0.24 0.19 0.18 0.20 0.28 0.30 0.26 0.18 0.16 0.17 0.17 0.21 0.25 0.40 0.58 0.61 0.62 0.66 0.69 0.83 0.99 0.96 0.81 0.82 1.09 1.37 1.34 1.38 1.47 1.56 1.70 1.68 1.68 1.71 1.69 1.71 1.81 1.88 1.84 1.85 1.89 1.93 1.85 1.81
0.34 0.20 0.21 0.25 0.28 0.28 0.25 0.23 0.19 0.21 0.22 0.21 0.23 0.36 0.63 0.64 0.68 0.71 0.71 0.85 0.97 1.08 0.93 0.91 1.03 1.31 1.33 1.40 1.48 1.56 1.69 1.75 1.76 1.80 1.78 1.78 1.85 1.88 1.92 1.97 2.02 2.01 2.01 2.01
0.37 0.28 0.26 0.26 0.35 0.38 0.28 0.29 0.29 0.22 0.21 0.22 0.29 0.41 0.50 0.53 0.61 0.74 0.91 1.06 1.24 1.07 1.09 1.13 1.10 1.24 1.35 1.43 1.48 1.54 1.63 1.75 1.79 1.79 1.82 1.78 1.90 1.85 2.04 2.23 2.04 2.14 2.13 2.02
0.32 0.26 0.31 0.36 0.40 0.43 0.35 0.36 0.34 0.28 0.27 0.26 0.30 0.33 0.42 0.53 0.58 0.67 0.70 0.76 0.84 0.84 1.09 1.14 1.16 1.23 1.34 1.43 1.55 1.62 1.66 1.68 1.78 1.74 1.75 1.86 2.00 2.06 2.04 2.03 2.02 2.08 2.33 2.10
0.36 0.29 0.35 0.38 0.41 0.43 0.42 0.45 0.47 0.44 0.39 0.37 0.40 0.34 0.53 0.60 0.64 0.60 0.65 0.67 0.74 0.88 0.96 1.09 1.22 1.29 1.40 1.49 1.56 1.66 1.68 1.65 1.74 1.66 1.78 1.97 1.99 2.06 2.04 1.92 1.78 1.64 1.66 1.84
0.52 0.46 0.45 0.37 0.50 0.49 0.41 0.46 0.47 0.50 0.54 0.57 0.53 0.66 0.58 0.56 0.54 0.54 0.75 0.88 0.78 0.89 1.14 1.19 1.28 1.39 1.47 1.56 1.60 1.60 1.66 1.73 1.69 1.66 1.84 2.00 2.15 1.86 1.72 1.66 1.66 1.57 1.70 1.72
0.55 0.53 0.50 0.41 0.45 0.34 0.46 0.56 0.53 0.50 0.61 0.68 0.84 0.86 0.94 0.82 0.87 0.93 0.97 0.95 1.02 0.98 1.13 1.22 1.29 1.39 1.51 1.63 1.69 1.73 1.74 1.72 1.70 1.73 1.86 1.97 1.83 1.72 1.64 1.62 1.64 1.64 1.57 1.53
0.52 0.48 0.42 0.39 0.40 0.45 0.44 0.62 0.61 0.57 0.61 0.80 0.79 0.95 1.07 1.06 1.11 0.93 0.96 0.99 1.01 1.13 1.13 1.21 1.38 1.43 1.53 1.61 1.73 1.76 1.73 1.71 1.70 1.74 1.81 1.82 1.79 1.65 1.61 1.60 1.62 1.61 1.52 1.51
0.50 0.48 0.42 0.38 0.35 0.35 0.56 0.69 0.79 0.71 0.64 0.95 0.89 0.84 0.94 1.11 0.90 0.96 1.15 1.07 1.05 1.25 1.13 1.22 1.36 1.45 1.57 1.67 1.77 1.70 1.66 1.65 1.64 1.73 1.80 1.83 1.67 1.58 1.58 1.56 1.55 1.55 1.50 1.51
0.59 0.61 0.48 0.45 0.46 0.53 0.71 0.78 0.78 0.53 0.63 1.01 1.04 0.94 0.93 0.90 1.10 1.19 1.22 1.10 1.01 1.14 1.35 1.29 1.21 1.35 1.52 1.70 1.73 1.62 1.61 1.56 1.72 1.82 1.78 1.64 1.63 1.58 1.58 1.58 1.59 1.54 1.47 1.49
0.60 0.57 0.56 0.56 0.49 0.46 0.84 0.80 0.65 0.83 0.91 0.94 0.91 0.88 0.93 1.05 1.09 1.26 1.16 1.06 0.96 1.01 1.34 1.32 1.27 1.33 1.53 1.65 1.66 1.56 1.52 1.75 1.81 1.78 1.66 1.64 1.62 1.61 1.60 1.57 1.54 1.52 1.52 1.45
0.62 0.70 0.63 0.64 0.65 0.84 0.89 0.85 0.89 0.93 0.85 0.87 0.89 0.92 0.94 1.02 0.95 1.12 1.26 1.12 1.01 1.06 1.14 1.36 1.33 1.40 1.57 1.65 1.64 1.56 1.70 1.77 1.74 1.72 1.66 1.63 1.63 1.67 1.64 1.59 1.54 1.49 1.47 1.41
0.80 0.81 0.70 0.69 0.79 0.84 0.87 0.89 0.92 0.94 0.89 0.94 0.98 1.06 0.96 0.94 1.04 1.04 1.23 1.15 1.05 1.17 1.23 1.38 1.47 1.45 1.58 1.84 1.86 1.75 1.75 1.84 1.82 1.76 1.72 1.65 1.63 1.68 1.67 1.61 1.58 1.49 1.45 1.35
0.69 0.70 0.66 0.68 0.83 0.90 0.91 0.90 0.88 0.85 0.83 0.84 0.93 0.99 0.97 0.95 1.03 1.20 1.33 1.28 1.28 1.39 1.39 1.47 1.62 1.73 1.82 2.04 1.94 1.91 1.85 1.84 1.78 1.78 1.69 1.66 1.67 1.71 1.67 1.63 1.63 1.56 1.52 1.28
0.66 0.65 0.62 0.61 0.84 0.85 0.79 0.87 0.87 0.82 0.84 0.84 0.90 0.92 1.04 1.04 1.08 1.28 1.45 1.45 1.44 1.43 1.59 1.53 1.64 1.79 1.88 2.04 1.94 1.89 1.93 1.81 1.74 1.66 1.65 1.66 1.69 1.72 1.66 1.58 1.54 1.56 1.35 1.24
Wind_Speed
15 12 12 13 13 13 13 6 6 4 14 11 7 7 9 9 5 5 5 6 4 4 6 8 7 8 7 6 7 8 8 9 10 9 8 7 6 5 5 4 7 5 5 5
14 15 13 15 16 15 13 10 13 4 11 6 11 9 13 8 6 6 6 7 9 6 7 9 8 9 9 7 6 7 8 8 7 8 7 7 5 5 5 4 5 3 4 4
14 15 16 15 13 14 14 12 11 12 12 10 7 10 8 8 11 8 3 8 14 14 9 11 10 9 9 8 7 8 8 8 7 6 6 6 4 5 3 3 3 3 3 3
14 17 17 18 17 12 13 14 15 12 11 10 9 9 6 13 11 11 6 10 16 18 12 11 13 11 10 9 9 8 9 8 7 7 6 6 6 4 4 4 4 3 2 2
14 14 13 14 13 12 13 12 13 12 13 12 13 9 9 8 8 11 13 17 14 16 15 14 14 13 11 10 9 8 8 8 8 9 8 7 7 6 6 4 3 3 2 3
13 14 12 12 15 15 14 14 14 13 11 11 12 9 10 10 12 11 13 12 15 17 16 16 16 15 11 11 9 7 7 7 8 9 10 8 7 6 6 3 4 3 2 1
10 13 13 10 9 13 11 9 10 9 10 12 11 8 9 11 10 11 14 14 11 15 16 16 17 17 14 12 10 8 6 6 8 9 10 9 8 6 7 6 4 3 3 1
9 8 13 12 9 10 12 11 9 11 9 10 10 6 12 13 12 13 9 11 12 13 13 14 16 16 16 14 11 9 6 5 7 8 9 9 9 7 7 6 6 5 5 3
4 10 5 9 8 7 10 10 12 10 12 10 6 4 4 10 14 13 16 13 20 14 13 14 15 16 17 15 13 10 8 5 5 7 8 8 8 9 8 8 7 8 7 5
8 5 5 6 4 7 9 10 7 7 8 10 9 5 7 7 9 9 6 5 9 12 10 14 18 18 16 15 13 12 10 7 5 6 8 7 6 7 9 9 8 7 7 7
8 6 7 3 5 6 6 9 11 9 7 6 6 8 9 9 6 3 3 6 8 10 8 14 12 19 16 14 13 12 10 9 8 7 7 8 7 7 8 8 10 11 10 10
8 9 7 11 11 9 6 9 9 8 11 10 6 8 7 4 4 6 9 7 9 8 6 9 12 18 15 14 12 12 11 10 9 9 8 7 7 8 9 8 7 8 10 10
5 6 3 6 2 4 5 6 9 9 8 9 7 9 7 7 6 6 4 10 11 9 5 8 9 17 15 14 12 12 11 10 10 9 9 8 10 12 12 10 8 10 11 10
8 9 7 5 6 6 6 4 4 6 7 8 7 7 7 9 6 3 1 3 11 7 6 9 11 15 14 14 13 12 10 10 9 9 10 10 6 7 10 8 9 12 15 13
9 11 8 8 6 6 6 6 9 7 7 9 12 13 11 10 7 8 9 10 10 7 8 9 11 12 14 13 14 13 11 11 9 9 10 10 9 9 9 7 7 10 4 8
9 11 9 9 9 10 8 9 5 4 8 9 10 8 10 9 7 6 10 9 8 7 7 9 11 12 12 13 13 12 11 11 10 9 8 8 8 7 6 6 6 6 9 3
7 7 7 10 9 10 8 7 9 9 4 5 4 9 8 9 10 9 8 9 6 6 6 8 11 13 13 13 13 11 11 11 10 8 8 8 7 4 5 5 6 7 6 2
7 7 8 10 10 9 10 12 10 6 6 7 5 5 4 4 4 3 5 3 7 7 7 9 10 13 14 13 13 12 12 11 10 8 7 6 6 5 5 6 6 5 4 3
12 10 10 8 10 11 9 8 6 5 4 6 8 6 5 7 5 6 7 7 8 9 9 10 12 12 13 15 14 14 13 13 11 10 9 8 7 7 8 7 7 6 5 5
16 16 13 12 12 11 10 12 12 12 11 10 12 13 11 11 10 13 10 11 10 10 11 13 14 15 17 16 15 14 14 13 12 11 11 9 9 9 9 8 7 7 7 7
10 10 10 11 11 10 10 12 12 10 14 14 13 15 19 19 18 17 15 16 16 15 16 15 16 18 17 16 17 17 15 15 14 12 11 10 10 9 9 9 8 9 9 9
11 11 13 13 12 13 12 13 12 13 17 19 19 22 33 29 26 21 20 18 18 19 18 18 18 19 19 18 19 18 17 17 15 14 12 11 11 10 10 9 9 9 9 9
11 12 11 11 13 13 13 12 11 12 15 17 15 14 17 20 21 23 23 21 20 20 19 19 19 21 23 21 20 19 17 16 15 14 13 12 11 10 10 10 10 10 10 10
9 9 10 11 13 13 16 14 14 14 15 14 17 18 16 19 20 22 22 20 21 20 18 18 19 22 23 20 20 19 18 16 15 14 12 12 11 11 10 10 11 11 11 11
15 13 15 15 14 14 15 15 16 17 17 17 15 16 16 17 18 18 17 15 15 15 16 16 18 18 20 23 18 17 17 15 13 13 12 12 12 12 11 11 12 13 13 12
14 16 15 16 14 14 16 15 16 16 16 17 16 17 15 14 15 16 14 14 13 13 15 16 16 15 15 12 13 14 16 13 13 12 13 13 12 12 11 11 11 10 11 12
Wind_Direction
228 232 230 236 241 253 269 227 223 295 230 245 251 252 263 246 234 238 235 216 221 203 188 182 177 174 161 158 164 175 185 193 198 202 204 210 225 227 228 258 312 313 303 303
230 229 234 238 248 257 264 232 241 276 253 235 298 275 247 236 229 239 243 261 234 217 196 190 184 180 180 170 171 174 172 172 181 194 204 210 211 220 238 270 307 313 335 331
223 231 230 236 246 255 258 255 266 230 237 280 305 296 210 244 248 254 258 278 246 224 205 200 196 190 192 192 190 186 182 180 181 182 190 197 210 214 233 269 301 318 335 346
231 236 241 244 246 252 255 259 275 272 253 266 264 276 270 252 254 273 261 288 225 219 211 202 203 196 199 203 200 200 201 203 205 204 209 214 217 228 250 270 287 305 311 347
237 236 243 250 246 257 253 274 277 274 283 280 282 278 267 246 265 257 269 285 225 215 215 203 200 198 199 195 199 205 209 213 218 222 224 229 232 245 259 253 264 286 300 330
238 244 254 251 247 256 266 270 279 268 275 280 273 274 264 238 241 259 293 275 226 219 216 214 204 204 199 196 199 203 211 219 224 225 225 233 234 240 240 277 263 267 275 325
246 239 245 252 263 261 268 259 267 271 268 258 276 299 264 239 241 247 292 256 253 212 212 216 206 205 205 196 202 209 217 228 227 226 225 230 232 238 236 243 250 252 226 271
226 271 242 241 240 244 243 234 232 250 258 263 309 252 261 238 251 252 269 258 252 225 229 217 209 206 207 208 208 209 220 230 225 221 223 230 234 238 234 238 241 252 235 240
267 299 186 213 229 229 250 252 241 254 270 284 262 285 301 265 262 266 270 286 241 232 198 231 210 203 204 207 211 212 217 232 225 215 215 229 238 234 236 240 248 251 230 237
243 265 213 211 229 242 243 245 258 261 254 274 271 261 277 270 274 255 282 333 218 174 207 268 206 199 202 206 210 215 220 224 223 220 220 223 231 234 239 243 242 234 230 238
236 230 262 207 245 240 260 250 244 242 240 265 270 279 263 276 288 280 248 256 225 198 267 190 191 200 200 204 206 213 221 224 231 229 229 230 235 245 250 245 244 242 238 245
229 225 255 259 263 234 251 238 226 226 269 258 252 286 266 278 287 275 251 248 207 228 223 200 196 194 194 199 205 212 221 229 232 230 234 239 249 248 247 251 239 239 243 246
264 221 214 324 22 200 263 264 243 251 256 250 257 253 253 293 296 298 277 216 223 208 249 208 201 191 199 202 206 214 222 230 229 230 236 246 260 252 249 246 248 256 249 249
225 220 226 249 261 245 236 246 262 266 257 261 277 217 252 260 264 271 71 190 206 235 228 224 207 200 205 208 212 216 223 225 230 234 238 243 263 260 254 253 273 275 259 248
219 225 247 279 276 299 274 289 280 291 285 264 237 256 264 245 227 249 254 252 276 250 227 219 206 208 207 209 214 220 226 225 231 240 240 244 255 267 275 278 289 320 263 238
226 237 253 270 265 281 282 291 297 298 313 308 297 275 243 215 224 270 257 252 266 229 223 216 204 202 206 211 216 222 227 227 233 241 240 241 255 269 270 271 284 304 330 333
225 231 258 254 274 295 283 280 280 253 297 303 321 313 218 214 248 247 248 229 237 229 225 203 207 210 209 215 217 223 226 225 233 240 241 246 234 258 275 280 283 298 312 305
255 262 255 257 275 277 265 297 278 263 261 253 273 355 73 233 239 197 196 252 240 234 224 224 223 218 218 220 222 221 225 225 230 233 236 230 242 255 276 285 283 287 283 215
258 263 265 254 267 272 269 282 291 298 276 295 277 300 306 275 258 259 260 271 280 244 238 237 233 225 222 223 225 224 226 226 227 229 229 233 244 265 279 276 267 268 252 252
258 252 248 256 256 261 259 280 292 271 260 289 276 268 270 295 261 253 266 268 275 261 249 247 242 235 233 227 223 221 223 223 226 228 231 241 253 271 272 269 261 256 256 259
251 255 248 259 257 253 264 282 288 265 263 276 287 279 276 266 269 258 261 267 268 269 256 250 248 237 230 225 218 219 223 225 226 229 234 247 259 268 266 263 261 256 260 259
239 251 252 252 258 260 268 280 277 270 272 271 280 285 274 257 262 259 258 261 267 263 261 251 244 231 224 224 220 220 224 223 224 229 238 250 258 263 264 256 259 260 259 257
254 245 243 243 255 262 273 281 275 274 283 285 282 265 257 259 258 258 253 258 262 260 259 245 239 228 222 221 217 215 219 218 222 227 237 245 252 258 262 255 254 257 259 259
253 264 251 254 255 259 272 279 277 283 289 279 281 269 273 267 266 260 255 257 260 258 250 242 233 227 220 219 211 208 208 212 219 226 237 244 255 259 257 254 255 259 260 259
250 265 263 258 254 261 270 276 277 279 287 290 291 286 278 277 275 277 254 255 254 248 236 234 233 224 220 218 198 205 206 206 217 228 239 249 254 254 257 261 263 260 260 260
261 262 261 255 258 265 270 275 281 278 282 283 287 294 277 285 272 272 252 249 245 235 234 233 238 228 221 195 198 206 209 212 216 234 248 255 253 253 260 263 262 262 263 263